Location: Grange Rosano
(44.4500°N, 6.9667°E)
Time: 21:21:50
(UTC+00:00)

Cosmos 2278 Rocket - Pass Details

Date: 26 May 2022
Orbit: 840 x 846 km, 71.0° (Epoch: 01 July)

Event Time Altitude Azimuth Distance (km) Brightness Sun altitude
Rises 01:37:49 0° 321° (NW) 3,415 5.6 -18.2°
Reaches altitude 10° 01:40:51 10° 306° (NW) 2,474 4.7 -17.9°
Maximum altitude 01:44:53 20° 260° (W) 1,844 3.6 -17.5°
Enters shadow 01:45:20 20° 253° (WSW) 1,853 3.5 -17.4°
